Other Surface Observations
Issued by NWS Charleston, SC

Home | Current Version | Previous Version | Text Only | Print | Product List | Glossary On
Versions: 1 2 3 4 5 6 7 8 9 10 11 12 13 14 15 16 17 18 19 20 21 22 23 24 25 26 27 28 29 30 31 32 33 34 35 36 37 38 39 40 41 42 43 44 45 46 47 48 49 50
000
SXUS52 KCHS 291826
OSOCHS
MARINE OBSERVATIONS
NATIONAL WEATHER SERVICE CHARLESTON SC
200 PM EDT WED JUL 29 2015

...DOWNTOWN CHARLESTON AND HARBOR...

CITY           SKY/WX    TMP DP  RH WIND       PRES   REMARKS
WATERFRONT PRK   N/A     85  77  76 SE10      29.95F HX  95

...LAKE MOULTRIE...

CITY           SKY/WX    TMP DP  RH WIND       PRES   REMARKS
PINOPOLIS      NOT AVBL

...LAKE AND SUPPLEMENTAL COASTAL OBSERVATIONS...

STATION/POSITION TIME  TEMP    WIND        PRES    WAVE   SWELL
                       AIR SEA DIR/SP/G            HT/PER HT/PER/DIR
                 (UTC) (F)     (DEG/KT/KT) (MB)    (FT/S) (FT/S/D)
FORT PULASKI     1800   84                   N/A
SAPELO ISLAND    1800   91      40/  7     1015.0S
UPR LAKE MARION  NOT AVBL
WINYAH BAY       1745   83      70/  8     1015.0S
LAKE MURRAY      1800   90     230/  1/  3 1014.2F
ACE BASIN NERRS  1700   92      50/  2     1016.0S


...C-MAN AND BUOY OBSERVATIONS...

STATION/POSITION TIME  TEMP    WIND        PRES    WAVE   SWELL
                       AIR SEA DIR/SP/G            HT/PER HT/PER/DIR
                 (UTC) (F)     (DEG/KT/KT) (MB)    (FT/S) (FT/S/D)
BUOY 41004       1750   83 85   20/ 14/ 16 1014.0F   3/ 7   2/ 7
BUOY 41008       1750   82 83   40/ 10/ 12 1015.0F   2/ 6   2/140/ 6
FOLLY BEACH CMAN 1800   85      80/ 10/ 11 1014.9F
CAPERS NS BUOY   1708   82      70/ 12/ 16 1015.4F
FRIPP NS BUOY    1700   85      80/ 10/ 12 1015.0F
5E ST. MARYS GA  1721      83                N/A     2/11


STATION/POSITION TIME  TEMP    WIND        PRES    WAVE   SWELL
                       AIR SEA DIR/SP/G            HT/PER HT/PER/DIR
                 (UTC) (F)     (DEG/KT/KT) (MB)    (FT/S) (FT/S/D)
FRYING PAN BUOY  1750   83 84   30/ 14/ 16 1015.3F   4/ 7   2/120/10
BUOY 41025       NOT AVBL
CAPE LOOKOUT NC  1800   82      60/ 13/ 14 1015.6S
BUOY 41002       1750   83 82  210/ 12/ 14 1015.4R   5/ 6   3/ 50/10
BUOY 41010       1720   81 84  210/ 17/ 19 1013.8F
ST AUGUSTINE FL  1800   81 83   30/ 12/ 12 1014.9F

$$



USA.gov is the U.S. government's official web portal to all federal, state and local government web resources and services.